FAB2462 SBGL-SBPK

Flight info

Callsign FAB2462
Flight time 2h 23m
Altitude 22000
Route Z4
Aircraft C130/M-SDE3/C

Departure

Time 2026-04-27 12:08
Airport Rio Galeão – Tom Jobim International Airport (SBGL)

Arrival

Time 2026-04-27 14:32
Airport João Simões Lopes Neto International Airport (SBPK)
Time Latitude Longitude Altitude Speed Heading
2026-04-27 12:08 -22.82975 -43.42685 4315 ft 287 kts 137°
2026-04-27 12:08 -22.84135 -43.40888 4586 ft 288 kts 118°
2026-04-27 12:09 -22.84964 -43.38945 4836 ft 290 kts 116°
2026-04-27 12:09 -22.86196 -43.37220 5079 ft 290 kts 136°
2026-04-27 12:09 -22.87893 -43.36060 5330 ft 289 kts 156°
2026-04-27 12:09 -22.89863 -43.35601 5583 ft 288 kts 177°
2026-04-27 12:10 -22.91836 -43.35903 5841 ft 286 kts 197°
2026-04-27 12:10 -22.93667 -43.36754 6109 ft 286 kts 208°
2026-04-27 12:10 -22.95386 -43.37799 6360 ft 287 kts 211°
2026-04-27 12:10 -22.97114 -43.38898 6612 ft 288 kts 211°
2026-04-27 12:11 -22.98876 -43.39963 6863 ft 289 kts 210°
2026-04-27 12:11 -23.00653 -43.40942 7111 ft 290 kts 207°
2026-04-27 12:11 -23.02517 -43.41869 7365 ft 291 kts 205°
2026-04-27 12:11 -23.04357 -43.42700 7613 ft 292 kts 203°
2026-04-27 12:12 -23.06290 -43.43503 7867 ft 293 kts 201°
2026-04-27 12:12 -23.08209 -43.44250 8118 ft 293 kts 200°
2026-04-27 12:12 -23.10146 -43.44971 8369 ft 294 kts 200°
2026-04-27 12:12 -23.12066 -43.45664 8617 ft 294 kts 199°
2026-04-27 12:13 -23.14039 -43.46363 8871 ft 295 kts 199°
2026-04-27 12:13 -23.15996 -43.47051 9121 ft 295 kts 199°
2026-04-27 12:13 -23.17952 -43.47738 9372 ft 295 kts 199°
2026-04-27 12:13 -23.19907 -43.48425 9622 ft 296 kts 199°
2026-04-27 12:14 -23.21870 -43.49117 9873 ft 296 kts 199°
2026-04-27 12:14 -23.23834 -43.49811 10124 ft 296 kts 199°
2026-04-27 12:14 -23.25782 -43.50500 10372 ft 297 kts 199°
2026-04-27 12:14 -23.27764 -43.51203 10625 ft 297 kts 199°
2026-04-27 12:15 -23.29707 -43.51892 10872 ft 297 kts 199°
2026-04-27 12:15 -23.31696 -43.52598 11125 ft 298 kts 200°
2026-04-27 12:15 -23.33645 -43.53291 11373 ft 298 kts 200°
2026-04-27 12:15 -23.35622 -43.53994 11624 ft 298 kts 200°
2026-04-27 12:16 -23.37599 -43.54697 11874 ft 299 kts 200°
2026-04-27 12:16 -23.39580 -43.55403 12125 ft 299 kts 200°
2026-04-27 12:16 -23.41560 -43.56108 12375 ft 300 kts 200°
2026-04-27 12:16 -23.43535 -43.56813 12625 ft 300 kts 200°
2026-04-27 12:17 -23.45525 -43.57523 12875 ft 300 kts 200°
2026-04-27 12:17 -23.47517 -43.58234 13126 ft 301 kts 200°
2026-04-27 12:17 -23.49513 -43.58947 13377 ft 301 kts 201°
2026-04-27 12:17 -23.51501 -43.59658 13627 ft 302 kts 201°
2026-04-27 12:18 -23.53496 -43.60371 13877 ft 302 kts 201°
2026-04-27 12:18 -23.55500 -43.61089 14128 ft 302 kts 201°
2026-04-27 12:18 -23.57472 -43.61796 14375 ft 302 kts 201°
2026-04-27 12:18 -23.59491 -43.62538 14625 ft 302 kts 203°
2026-04-27 12:19 -23.61367 -43.63549 14878 ft 299 kts 213°
2026-04-27 12:19 -23.63090 -43.64801 15131 ft 297 kts 219°
2026-04-27 12:19 -23.64692 -43.66171 15379 ft 296 kts 223°
2026-04-27 12:19 -23.66245 -43.67632 15630 ft 295 kts 225°
2026-04-27 12:20 -23.67787 -43.69169 15885 ft 295 kts 226°
2026-04-27 12:20 -23.69254 -43.70686 16132 ft 294 kts 227°
2026-04-27 12:20 -23.70726 -43.72240 16382 ft 294 kts 227°
2026-04-27 12:20 -23.72191 -43.73809 16634 ft 294 kts 228°
2026-04-27 12:21 -23.73174 -43.74868 16803 ft 294 kts 228°
2026-04-27 12:21 -23.74625 -43.76440 17054 ft 293 kts 228°
2026-04-27 12:21 -23.76539 -43.78522 17385 ft 293 kts 228°
2026-04-27 12:21 -23.77983 -43.80097 17636 ft 293 kts 228°
2026-04-27 12:22 -23.79422 -43.81669 17886 ft 293 kts 228°
2026-04-27 12:22 -23.80375 -43.82711 18052 ft 292 kts 228°
2026-04-27 12:22 -23.81808 -43.84279 18302 ft 292 kts 228°
2026-04-27 12:22 -23.83243 -43.85849 18553 ft 291 kts 228°
2026-04-27 12:23 -23.84675 -43.87418 18804 ft 290 kts 228°
2026-04-27 12:23 -23.86097 -43.88976 19053 ft 290 kts 228°
2026-04-27 12:23 -23.87517 -43.90532 19303 ft 289 kts 228°
2026-04-27 12:23 -23.88931 -43.92084 19553 ft 288 kts 228°
2026-04-27 12:24 -23.90342 -43.93631 19803 ft 287 kts 229°
2026-04-27 12:24 -23.91755 -43.95180 20054 ft 286 kts 229°
2026-04-27 12:24 -23.93163 -43.96724 20304 ft 285 kts 229°
2026-04-27 12:24 -23.94560 -43.98257 20554 ft 285 kts 229°
2026-04-27 12:25 -23.95964 -43.99799 20805 ft 284 kts 229°
2026-04-27 12:25 -23.97341 -44.01311 21052 ft 284 kts 229°
2026-04-27 12:25 -23.98738 -44.02845 21302 ft 283 kts 229°
2026-04-27 12:25 -24.00126 -44.04370 21552 ft 283 kts 229°
2026-04-27 12:26 -24.01515 -44.05898 21779 ft 284 kts 229°
2026-04-27 12:26 -24.02919 -44.07445 21909 ft 287 kts 229°
2026-04-27 12:26 -24.04344 -44.09017 21959 ft 293 kts 229°
2026-04-27 12:26 -24.05774 -44.10597 21968 ft 298 kts 229°
2026-04-27 12:27 -24.07242 -44.12218 21969 ft 303 kts 229°
2026-04-27 12:27 -24.08736 -44.13868 21969 ft 307 kts 229°
2026-04-27 12:27 -24.10248 -44.15538 21969 ft 310 kts 229°
2026-04-27 12:27 -24.11771 -44.17218 21968 ft 312 kts 229°
2026-04-27 12:28 -24.13308 -44.18914 21968 ft 314 kts 229°
2026-04-27 12:28 -24.14853 -44.20619 21968 ft 316 kts 229°
2026-04-27 12:28 -24.16402 -44.22328 21968 ft 317 kts 229°
2026-04-27 12:28 -24.17962 -44.24049 21968 ft 318 kts 229°
2026-04-27 12:29 -24.19517 -44.25766 21968 ft 319 kts 229°
2026-04-27 12:29 -24.21087 -44.27500 21968 ft 319 kts 229°
2026-04-27 12:29 -24.22653 -44.29230 21968 ft 320 kts 229°
2026-04-27 12:29 -24.24218 -44.30959 21968 ft 320 kts 229°
2026-04-27 12:30 -24.25792 -44.32700 21968 ft 321 kts 229°
2026-04-27 12:30 -24.27360 -44.34434 21968 ft 321 kts 229°
2026-04-27 12:30 -24.28930 -44.36172 21968 ft 321 kts 229°
2026-04-27 12:30 -24.30488 -44.37896 21968 ft 321 kts 229°
2026-04-27 12:31 -24.32065 -44.39644 21968 ft 321 kts 229°
2026-04-27 12:31 -24.33642 -44.41391 21968 ft 322 kts 229°
2026-04-27 12:31 -24.35213 -44.43132 21968 ft 322 kts 229°
2026-04-27 12:31 -24.36790 -44.44881 21968 ft 322 kts 229°
2026-04-27 12:32 -24.38366 -44.46628 21968 ft 322 kts 229°
2026-04-27 12:32 -24.39943 -44.48379 21968 ft 322 kts 229°
2026-04-27 12:32 -24.41513 -44.50122 21968 ft 322 kts 229°
2026-04-27 12:32 -24.43091 -44.51875 21968 ft 322 kts 229°
2026-04-27 12:33 -24.44670 -44.53629 21968 ft 322 kts 229°
2026-04-27 12:33 -24.46241 -44.55376 21968 ft 322 kts 229°
2026-04-27 12:33 -24.47821 -44.57132 21968 ft 322 kts 229°
2026-04-27 12:33 -24.49393 -44.58882 21968 ft 322 kts 229°
2026-04-27 12:34 -24.50968 -44.60634 21968 ft 322 kts 229°
2026-04-27 12:34 -24.52548 -44.62393 21968 ft 322 kts 229°
2026-04-27 12:34 -24.54118 -44.64141 21968 ft 322 kts 229°
2026-04-27 12:34 -24.55679 -44.65880 21968 ft 322 kts 229°
2026-04-27 12:35 -24.57276 -44.67661 21968 ft 322 kts 229°
2026-04-27 12:35 -24.58832 -44.69395 21968 ft 322 kts 229°
2026-04-27 12:35 -24.60400 -44.71144 21968 ft 322 kts 229°
2026-04-27 12:35 -24.61976 -44.72904 21968 ft 322 kts 229°
2026-04-27 12:36 -24.63552 -44.74663 21968 ft 322 kts 229°
2026-04-27 12:36 -24.65119 -44.76412 21968 ft 322 kts 229°
2026-04-27 12:36 -24.66701 -44.78180 21968 ft 322 kts 229°
2026-04-27 12:36 -24.68269 -44.79932 21968 ft 322 kts 229°
2026-04-27 12:37 -24.69844 -44.81693 21968 ft 322 kts 229°
2026-04-27 12:37 -24.71422 -44.83457 21972 ft 322 kts 229°
2026-04-27 12:37 -24.72973 -44.85192 21974 ft 322 kts 229°
2026-04-27 12:37 -24.74563 -44.86972 21975 ft 322 kts 229°
2026-04-27 12:38 -24.76141 -44.88739 21977 ft 322 kts 229°
2026-04-27 12:38 -24.77694 -44.90478 21978 ft 322 kts 229°
2026-04-27 12:38 -24.79267 -44.92242 21976 ft 322 kts 229°
2026-04-27 12:38 -24.80846 -44.94011 21971 ft 323 kts 229°
2026-04-27 12:39 -24.82415 -44.95772 21968 ft 323 kts 229°
2026-04-27 12:39 -24.83995 -44.97545 21968 ft 323 kts 229°
2026-04-27 12:39 -24.85564 -44.99305 21968 ft 322 kts 229°
2026-04-27 12:39 -24.87140 -45.01074 21985 ft 322 kts 230°
2026-04-27 12:40 -24.88709 -45.02833 22033 ft 321 kts 230°
2026-04-27 12:40 -24.90253 -45.04567 22059 ft 321 kts 230°
2026-04-27 12:40 -24.91818 -45.06326 22067 ft 322 kts 230°
2026-04-27 12:40 -24.93402 -45.08108 22069 ft 322 kts 230°
2026-04-27 12:41 -24.94955 -45.09856 22070 ft 323 kts 230°
2026-04-27 12:41 -24.96526 -45.11624 22068 ft 323 kts 230°
2026-04-27 12:41 -24.98109 -45.13407 22062 ft 324 kts 230°
2026-04-27 12:41 -24.99685 -45.15183 22061 ft 324 kts 230°
2026-04-27 12:42 -25.01266 -45.16964 22062 ft 324 kts 230°
2026-04-27 12:42 -25.02845 -45.18744 22062 ft 325 kts 230°
2026-04-27 12:42 -25.04422 -45.20522 22062 ft 325 kts 230°
2026-04-27 12:42 -25.05999 -45.22301 22065 ft 325 kts 230°
2026-04-27 12:43 -25.07583 -45.24088 22068 ft 325 kts 230°
2026-04-27 12:43 -25.09158 -45.25865 22068 ft 325 kts 230°
2026-04-27 12:43 -25.10749 -45.27662 22068 ft 325 kts 230°
2026-04-27 12:43 -25.12332 -45.29449 22068 ft 325 kts 230°
2026-04-27 12:44 -25.13892 -45.31213 22068 ft 325 kts 230°
2026-04-27 12:44 -25.15469 -45.32996 22069 ft 325 kts 230°
2026-04-27 12:44 -25.17053 -45.34788 22069 ft 325 kts 230°
2026-04-27 12:44 -25.18628 -45.36571 22070 ft 325 kts 230°
2026-04-27 12:45 -25.20212 -45.38363 22070 ft 325 kts 230°
2026-04-27 12:45 -25.21793 -45.40154 22070 ft 325 kts 230°
2026-04-27 12:45 -25.23372 -45.41942 22070 ft 325 kts 230°
2026-04-27 12:45 -25.24956 -45.43737 22069 ft 325 kts 230°
2026-04-27 12:46 -25.26539 -45.45532 22069 ft 325 kts 230°
2026-04-27 12:46 -25.28115 -45.47319 22069 ft 325 kts 230°
2026-04-27 12:46 -25.29689 -45.49105 22068 ft 325 kts 230°
2026-04-27 12:46 -25.31274 -45.50903 22068 ft 325 kts 230°
2026-04-27 12:47 -25.32852 -45.52696 22069 ft 325 kts 230°
2026-04-27 12:47 -25.34403 -45.54458 22069 ft 325 kts 230°
2026-04-27 12:47 -25.35995 -45.56267 22070 ft 324 kts 230°
2026-04-27 12:47 -25.37557 -45.58044 22070 ft 324 kts 230°
2026-04-27 12:48 -25.39127 -45.59829 22070 ft 324 kts 230°
2026-04-27 12:48 -25.40702 -45.61621 22070 ft 324 kts 230°
2026-04-27 12:48 -25.42296 -45.63436 22070 ft 324 kts 230°
2026-04-27 12:48 -25.43868 -45.65227 22070 ft 324 kts 230°
2026-04-27 12:49 -25.45444 -45.67021 22070 ft 324 kts 230°
2026-04-27 12:49 -25.46995 -45.68789 22070 ft 324 kts 230°
2026-04-27 12:49 -25.48571 -45.70586 22070 ft 324 kts 230°
2026-04-27 12:49 -25.50144 -45.72381 22071 ft 324 kts 230°
2026-04-27 12:50 -25.51714 -45.74173 22071 ft 324 kts 230°
2026-04-27 12:50 -25.53288 -45.75968 22071 ft 324 kts 230°
2026-04-27 12:50 -25.54854 -45.77757 22071 ft 324 kts 230°
2026-04-27 12:50 -25.56427 -45.79554 22071 ft 324 kts 230°
2026-04-27 12:51 -25.57998 -45.81349 22071 ft 324 kts 230°
2026-04-27 12:51 -25.59576 -45.83154 22072 ft 324 kts 230°
2026-04-27 12:51 -25.61146 -45.84949 22072 ft 324 kts 230°
2026-04-27 12:51 -25.62714 -45.86743 22072 ft 324 kts 230°
2026-04-27 12:52 -25.64284 -45.88541 22072 ft 324 kts 230°
2026-04-27 12:52 -25.65855 -45.90340 22072 ft 324 kts 230°
2026-04-27 12:52 -25.67434 -45.92149 22070 ft 324 kts 230°
2026-04-27 12:52 -25.69007 -45.93950 22068 ft 324 kts 230°
2026-04-27 12:53 -25.72121 -45.97520 22058 ft 324 kts 230°
2026-04-27 12:53 -25.73691 -45.99322 22054 ft 324 kts 230°
2026-04-27 12:53 -25.75262 -46.01124 22050 ft 324 kts 230°
2026-04-27 12:54 -25.76825 -46.02919 22046 ft 324 kts 231°
2026-04-27 12:54 -25.78391 -46.04718 22044 ft 324 kts 231°
2026-04-27 12:54 -25.79956 -46.06517 22042 ft 324 kts 231°
2026-04-27 12:54 -25.81518 -46.08314 22041 ft 323 kts 231°
2026-04-27 12:55 -25.83079 -46.10109 22040 ft 323 kts 231°
2026-04-27 12:55 -25.84651 -46.11918 22040 ft 323 kts 231°
2026-04-27 12:55 -25.86211 -46.13715 22040 ft 323 kts 231°
2026-04-27 12:55 -25.87774 -46.15516 22040 ft 323 kts 231°
2026-04-27 12:56 -25.89326 -46.17304 22039 ft 323 kts 231°
2026-04-27 12:56 -25.90886 -46.19102 22039 ft 323 kts 231°
2026-04-27 12:56 -25.91922 -46.20297 22039 ft 323 kts 231°
2026-04-27 12:56 -25.93480 -46.22094 22038 ft 323 kts 231°
2026-04-27 12:57 -25.95034 -46.23888 22038 ft 323 kts 231°
2026-04-27 12:57 -25.96592 -46.25686 22038 ft 322 kts 231°
2026-04-27 12:57 -25.98151 -46.27486 22038 ft 322 kts 231°
2026-04-27 12:57 -25.99704 -46.29280 22037 ft 322 kts 231°
2026-04-27 12:58 -26.01768 -46.31666 22037 ft 322 kts 231°
2026-04-27 12:58 -26.02819 -46.32882 22035 ft 322 kts 231°
2026-04-27 12:58 -26.04373 -46.34679 22033 ft 322 kts 231°
2026-04-27 12:58 -26.05927 -46.36477 22032 ft 322 kts 231°
2026-04-27 12:59 -26.07463 -46.38255 22031 ft 322 kts 231°
2026-04-27 12:59 -26.09020 -46.40058 22030 ft 322 kts 231°
2026-04-27 12:59 -26.10570 -46.41853 22024 ft 322 kts 231°
2026-04-27 12:59 -26.12125 -46.43654 22011 ft 322 kts 231°
2026-04-27 13:00 -26.13678 -46.45454 22005 ft 322 kts 231°
2026-04-27 13:00 -26.15229 -46.47254 22002 ft 322 kts 231°
2026-04-27 13:00 -26.16779 -46.49053 22002 ft 322 kts 231°
2026-04-27 13:00 -26.18332 -46.50856 22001 ft 321 kts 231°
2026-04-27 13:01 -26.19878 -46.52651 22000 ft 321 kts 231°
2026-04-27 13:01 -26.21425 -46.54450 21998 ft 321 kts 231°
2026-04-27 13:01 -26.22975 -46.56252 21997 ft 321 kts 231°
2026-04-27 13:01 -26.24516 -46.58044 21997 ft 321 kts 231°
2026-04-27 13:02 -26.26054 -46.59834 21997 ft 321 kts 231°
2026-04-27 13:02 -26.27582 -46.61612 21997 ft 320 kts 231°
2026-04-27 13:02 -26.29124 -46.63407 21997 ft 320 kts 231°
2026-04-27 13:02 -26.30669 -46.65208 21997 ft 320 kts 231°
2026-04-27 13:03 -26.32213 -46.67007 21997 ft 320 kts 231°
2026-04-27 13:03 -26.33750 -46.68799 21997 ft 320 kts 231°
2026-04-27 13:03 -26.35290 -46.70595 21997 ft 320 kts 231°
2026-04-27 13:03 -26.36832 -46.72394 21997 ft 320 kts 231°
2026-04-27 13:04 -26.38370 -46.74189 21997 ft 320 kts 231°
2026-04-27 13:04 -26.39904 -46.75981 21997 ft 320 kts 231°
2026-04-27 13:04 -26.41448 -46.77785 21997 ft 320 kts 231°
2026-04-27 13:04 -26.42982 -46.79577 21997 ft 320 kts 231°
2026-04-27 13:05 -26.44525 -46.81381 21997 ft 320 kts 231°
2026-04-27 13:05 -26.46064 -46.83182 21997 ft 320 kts 231°
2026-04-27 13:05 -26.47603 -46.84982 21997 ft 320 kts 231°
2026-04-27 13:05 -26.49124 -46.86762 21997 ft 320 kts 231°
2026-04-27 13:06 -26.50666 -46.88569 21997 ft 320 kts 231°
2026-04-27 13:06 -26.52202 -46.90368 21997 ft 320 kts 231°
2026-04-27 13:06 -26.53735 -46.92165 21997 ft 320 kts 231°
2026-04-27 13:06 -26.55276 -46.93972 21997 ft 320 kts 231°
2026-04-27 13:07 -26.56832 -46.95796 21997 ft 320 kts 231°
2026-04-27 13:07 -26.58348 -46.97576 21997 ft 320 kts 231°
2026-04-27 13:07 -26.59888 -46.99384 21997 ft 320 kts 231°
2026-04-27 13:07 -26.61425 -47.01189 21997 ft 320 kts 231°
2026-04-27 13:08 -26.62961 -47.02994 21997 ft 320 kts 231°
2026-04-27 13:08 -26.64500 -47.04803 21997 ft 320 kts 231°
2026-04-27 13:08 -26.66036 -47.06609 21997 ft 320 kts 231°
2026-04-27 13:08 -26.67577 -47.08421 21997 ft 320 kts 231°
2026-04-27 13:09 -26.69106 -47.10222 21997 ft 320 kts 231°
2026-04-27 13:09 -26.70647 -47.12036 21997 ft 320 kts 231°
2026-04-27 13:09 -26.72177 -47.13838 21997 ft 320 kts 232°
2026-04-27 13:09 -26.73711 -47.15645 22009 ft 320 kts 232°
2026-04-27 13:10 -26.75246 -47.17454 22022 ft 320 kts 232°
2026-04-27 13:10 -26.76777 -47.19259 22027 ft 320 kts 232°
2026-04-27 13:10 -26.78307 -47.21065 22028 ft 320 kts 232°
2026-04-27 13:10 -26.79842 -47.22876 22028 ft 320 kts 232°
2026-04-27 13:11 -26.81374 -47.24686 22028 ft 320 kts 232°
2026-04-27 13:11 -26.82912 -47.26503 22028 ft 320 kts 232°
2026-04-27 13:11 -26.84442 -47.28312 22027 ft 320 kts 232°
2026-04-27 13:11 -26.85980 -47.30131 22027 ft 320 kts 232°
2026-04-27 13:12 -26.87511 -47.31942 22027 ft 320 kts 232°
2026-04-27 13:12 -26.89049 -47.33763 22027 ft 321 kts 232°
2026-04-27 13:12 -26.90566 -47.35559 22026 ft 321 kts 232°
2026-04-27 13:12 -26.92107 -47.37384 22025 ft 321 kts 232°
2026-04-27 13:13 -26.93640 -47.39201 22025 ft 321 kts 232°
2026-04-27 13:13 -26.95170 -47.41014 22024 ft 321 kts 232°
2026-04-27 13:13 -26.96709 -47.42839 22024 ft 321 kts 232°
2026-04-27 13:13 -26.98242 -47.44659 22024 ft 321 kts 232°
2026-04-27 13:14 -26.99757 -47.46457 22023 ft 321 kts 232°
2026-04-27 13:14 -27.01291 -47.48278 22023 ft 321 kts 232°
2026-04-27 13:14 -27.02829 -47.50106 22022 ft 321 kts 232°
2026-04-27 13:14 -27.04356 -47.51920 22022 ft 321 kts 232°
2026-04-27 13:15 -27.05893 -47.53748 22022 ft 321 kts 232°
2026-04-27 13:15 -27.07425 -47.55570 22021 ft 321 kts 232°
2026-04-27 13:15 -27.08958 -47.57395 22020 ft 321 kts 232°
2026-04-27 13:15 -27.10492 -47.59221 22019 ft 321 kts 232°
2026-04-27 13:16 -27.12019 -47.61041 22018 ft 321 kts 232°
2026-04-27 13:16 -27.13536 -47.62848 22018 ft 321 kts 232°
2026-04-27 13:16 -27.15074 -47.64682 22018 ft 321 kts 232°
2026-04-27 13:16 -27.16602 -47.66504 22017 ft 321 kts 232°
2026-04-27 13:17 -27.18133 -47.68331 22017 ft 321 kts 232°
2026-04-27 13:17 -27.19669 -47.70165 22016 ft 321 kts 232°
2026-04-27 13:17 -27.21195 -47.71988 22015 ft 321 kts 232°
2026-04-27 13:17 -27.22727 -47.73819 22015 ft 321 kts 232°
2026-04-27 13:18 -27.24258 -47.75649 22015 ft 321 kts 232°
2026-04-27 13:18 -27.25782 -47.77472 22013 ft 321 kts 232°
2026-04-27 13:18 -27.27290 -47.79277 22013 ft 321 kts 232°
2026-04-27 13:18 -27.28839 -47.81131 22012 ft 321 kts 232°
2026-04-27 13:19 -27.30345 -47.82936 22011 ft 321 kts 232°
2026-04-27 13:19 -27.31876 -47.84772 22011 ft 321 kts 232°
2026-04-27 13:19 -27.33400 -47.86599 22010 ft 321 kts 232°
2026-04-27 13:19 -27.34923 -47.88428 22009 ft 321 kts 232°
2026-04-27 13:20 -27.36449 -47.90281 22009 ft 320 kts 233°
2026-04-27 13:20 -27.37920 -47.92161 22009 ft 319 kts 234°
2026-04-27 13:20 -27.39353 -47.94065 22008 ft 319 kts 235°
2026-04-27 13:20 -27.40770 -47.95997 22007 ft 319 kts 236°
2026-04-27 13:21 -27.42168 -47.97934 22007 ft 318 kts 236°
2026-04-27 13:21 -27.43542 -47.99859 22006 ft 318 kts 236°
2026-04-27 13:21 -27.44922 -48.01805 22006 ft 318 kts 236°
2026-04-27 13:21 -27.46302 -48.03760 22006 ft 318 kts 236°
2026-04-27 13:22 -27.47682 -48.05722 22005 ft 318 kts 236°
2026-04-27 13:22 -27.49059 -48.07683 22004 ft 318 kts 236°
2026-04-27 13:22 -27.50429 -48.09638 22003 ft 318 kts 236°
2026-04-27 13:22 -27.51802 -48.11598 22002 ft 318 kts 236°
2026-04-27 13:23 -27.53175 -48.13561 22002 ft 318 kts 237°
2026-04-27 13:23 -27.54546 -48.15521 22001 ft 318 kts 237°
2026-04-27 13:23 -27.55898 -48.17455 22001 ft 318 kts 237°
2026-04-27 13:23 -27.57272 -48.19422 22001 ft 318 kts 237°
2026-04-27 13:24 -27.58640 -48.21382 22001 ft 318 kts 237°
2026-04-27 13:24 -27.60008 -48.23343 22000 ft 318 kts 237°
2026-04-27 13:24 -27.61384 -48.25316 22001 ft 318 kts 237°
2026-04-27 13:24 -27.62748 -48.27273 22001 ft 318 kts 237°
2026-04-27 13:25 -27.64118 -48.29239 22000 ft 318 kts 237°
2026-04-27 13:25 -27.65487 -48.31204 21999 ft 318 kts 237°
2026-04-27 13:25 -27.66851 -48.33163 21998 ft 318 kts 237°
2026-04-27 13:25 -27.68223 -48.35135 21998 ft 318 kts 237°
2026-04-27 13:26 -27.69590 -48.37100 21998 ft 318 kts 237°
2026-04-27 13:26 -27.70957 -48.39067 21998 ft 318 kts 237°
2026-04-27 13:26 -27.72304 -48.41004 21998 ft 318 kts 237°
2026-04-27 13:26 -27.73685 -48.42993 21998 ft 318 kts 237°
2026-04-27 13:27 -27.75039 -48.44942 21998 ft 318 kts 237°
2026-04-27 13:27 -27.76419 -48.46932 21998 ft 318 kts 237°
2026-04-27 13:27 -27.77773 -48.48884 21998 ft 318 kts 237°
2026-04-27 13:27 -27.79151 -48.50872 21999 ft 318 kts 237°
2026-04-27 13:28 -27.80499 -48.52816 21998 ft 318 kts 237°
2026-04-27 13:28 -27.81869 -48.54794 21998 ft 318 kts 237°
2026-04-27 13:28 -27.83231 -48.56761 21998 ft 318 kts 237°
2026-04-27 13:28 -27.84597 -48.58736 21998 ft 318 kts 237°
2026-04-27 13:29 -27.85963 -48.60710 21998 ft 318 kts 237°
2026-04-27 13:29 -27.87321 -48.62675 21998 ft 318 kts 237°
2026-04-27 13:29 -27.88690 -48.64655 21998 ft 318 kts 237°
2026-04-27 13:29 -27.90051 -48.66626 21999 ft 318 kts 237°
2026-04-27 13:30 -27.91409 -48.68593 21999 ft 318 kts 237°
2026-04-27 13:30 -27.92776 -48.70574 22000 ft 318 kts 238°
2026-04-27 13:30 -27.94134 -48.72511 22001 ft 313 kts 239°
2026-04-27 13:30 -27.95023 -48.73789 22000 ft 311 kts 239°
2026-04-27 13:31 -27.96351 -48.75712 22000 ft 308 kts 239°
2026-04-27 13:31 -27.97664 -48.77622 22000 ft 305 kts 240°
2026-04-27 13:31 -27.98965 -48.79518 22000 ft 304 kts 240°
2026-04-27 13:31 -28.00253 -48.81399 22001 ft 303 kts 240°
2026-04-27 13:32 -28.01542 -48.83282 22001 ft 302 kts 240°
2026-04-27 13:32 -28.02811 -48.85136 22001 ft 301 kts 240°
2026-04-27 13:32 -28.04091 -48.87005 22001 ft 300 kts 240°
2026-04-27 13:32 -28.05377 -48.88882 22001 ft 300 kts 240°
2026-04-27 13:33 -28.06653 -48.90746 22001 ft 299 kts 240°
2026-04-27 13:33 -28.07933 -48.92613 22001 ft 299 kts 240°
2026-04-27 13:33 -28.09259 -48.94434 22001 ft 301 kts 237°
2026-04-27 13:33 -28.10654 -48.96209 22001 ft 302 kts 236°
2026-04-27 13:34 -28.12094 -48.97958 22001 ft 303 kts 235°
2026-04-27 13:34 -28.13523 -48.99648 22000 ft 303 kts 234°
2026-04-27 13:34 -28.15006 -49.01372 22000 ft 303 kts 234°
2026-04-27 13:34 -28.16499 -49.03092 21999 ft 303 kts 234°
2026-04-27 13:35 -28.17985 -49.04794 21999 ft 303 kts 234°
2026-04-27 13:35 -28.19474 -49.06494 21998 ft 303 kts 234°
2026-04-27 13:35 -28.20965 -49.08193 21998 ft 303 kts 234°
2026-04-27 13:35 -28.22433 -49.09864 21998 ft 303 kts 234°
2026-04-27 13:36 -28.23930 -49.11567 21997 ft 303 kts 234°
2026-04-27 13:36 -28.25417 -49.13259 21997 ft 303 kts 234°
2026-04-27 13:36 -28.26906 -49.14954 21997 ft 303 kts 234°
2026-04-27 13:36 -28.28372 -49.16623 21997 ft 303 kts 234°
2026-04-27 13:37 -28.29886 -49.18348 21997 ft 303 kts 234°
2026-04-27 13:37 -28.31353 -49.20019 21997 ft 303 kts 234°
2026-04-27 13:37 -28.32844 -49.21718 21997 ft 303 kts 234°
2026-04-27 13:37 -28.34319 -49.23400 21997 ft 303 kts 234°
2026-04-27 13:38 -28.35817 -49.25108 21997 ft 303 kts 234°
2026-04-27 13:38 -28.37299 -49.26799 21997 ft 303 kts 234°
2026-04-27 13:38 -28.38783 -49.28492 21997 ft 303 kts 234°
2026-04-27 13:38 -28.40274 -49.30195 21997 ft 303 kts 234°
2026-04-27 13:39 -28.41758 -49.31891 21997 ft 303 kts 234°
2026-04-27 13:39 -28.43248 -49.33594 21997 ft 303 kts 234°
2026-04-27 13:39 -28.44725 -49.35283 21997 ft 303 kts 234°
2026-04-27 13:39 -28.46197 -49.36966 21997 ft 303 kts 234°
2026-04-27 13:40 -28.47700 -49.38687 21997 ft 303 kts 234°
2026-04-27 13:40 -28.49182 -49.40383 21997 ft 303 kts 234°
2026-04-27 13:40 -28.50666 -49.42082 21997 ft 303 kts 234°
2026-04-27 13:40 -28.52130 -49.43760 21997 ft 303 kts 234°
2026-04-27 13:41 -28.53615 -49.45462 21997 ft 303 kts 234°
2026-04-27 13:41 -28.55097 -49.47161 21997 ft 303 kts 234°
2026-04-27 13:41 -28.56580 -49.48862 21997 ft 303 kts 234°
2026-04-27 13:41 -28.58067 -49.50569 21997 ft 303 kts 234°
2026-04-27 13:42 -28.59546 -49.52268 21997 ft 303 kts 234°
2026-04-27 13:42 -28.61031 -49.53973 21997 ft 303 kts 234°
2026-04-27 13:42 -28.62511 -49.55674 21997 ft 303 kts 234°
2026-04-27 13:42 -28.63994 -49.57379 21997 ft 303 kts 234°
2026-04-27 13:43 -28.65474 -49.59081 21997 ft 303 kts 234°
2026-04-27 13:43 -28.66946 -49.60775 21997 ft 303 kts 234°
2026-04-27 13:43 -28.68440 -49.62495 21997 ft 303 kts 234°
2026-04-27 13:43 -28.69905 -49.64182 21997 ft 303 kts 234°
2026-04-27 13:44 -28.71385 -49.65887 21997 ft 303 kts 234°
2026-04-27 13:44 -28.72868 -49.67596 21997 ft 303 kts 234°
2026-04-27 13:44 -28.74349 -49.69304 21997 ft 303 kts 234°
2026-04-27 13:44 -28.75826 -49.71007 21997 ft 303 kts 234°
2026-04-27 13:45 -28.77307 -49.72717 21997 ft 303 kts 234°
2026-04-27 13:45 -28.78781 -49.74419 21997 ft 303 kts 234°
2026-04-27 13:45 -28.80257 -49.76123 21997 ft 303 kts 234°
2026-04-27 13:45 -28.81748 -49.77847 21997 ft 303 kts 234°
2026-04-27 13:46 -28.83223 -49.79552 21997 ft 303 kts 234°
2026-04-27 13:46 -28.84705 -49.81266 21997 ft 303 kts 234°
2026-04-27 13:46 -28.86186 -49.82980 21997 ft 303 kts 234°
2026-04-27 13:46 -28.87669 -49.84696 21997 ft 303 kts 234°
2026-04-27 13:47 -28.89148 -49.86408 21997 ft 303 kts 234°
2026-04-27 13:47 -28.90625 -49.88120 21997 ft 303 kts 234°
2026-04-27 13:47 -28.92098 -49.89828 21997 ft 303 kts 234°
2026-04-27 13:47 -28.93577 -49.91542 21997 ft 303 kts 234°
2026-04-27 13:48 -28.95060 -49.93262 21997 ft 303 kts 234°
2026-04-27 13:48 -28.96536 -49.94976 21997 ft 303 kts 234°
2026-04-27 13:48 -28.98011 -49.96688 21997 ft 303 kts 234°
2026-04-27 13:48 -28.99490 -49.98407 21997 ft 303 kts 234°
2026-04-27 13:49 -29.00962 -50.00117 21997 ft 303 kts 234°
2026-04-27 13:49 -29.02440 -50.01836 21997 ft 303 kts 234°
2026-04-27 13:49 -29.03918 -50.03554 21997 ft 303 kts 234°
2026-04-27 13:49 -29.05396 -50.05274 21997 ft 303 kts 234°
2026-04-27 13:50 -29.06866 -50.06986 21997 ft 303 kts 234°
2026-04-27 13:50 -29.08331 -50.08691 21997 ft 303 kts 234°
2026-04-27 13:50 -29.09805 -50.10409 21997 ft 303 kts 234°
2026-04-27 13:50 -29.11283 -50.12131 21997 ft 303 kts 234°
2026-04-27 13:51 -29.12763 -50.13857 21997 ft 303 kts 234°
2026-04-27 13:51 -29.14236 -50.15576 21997 ft 303 kts 234°
2026-04-27 13:51 -29.15714 -50.17302 21999 ft 302 kts 234°
2026-04-27 13:51 -29.17184 -50.19021 22013 ft 302 kts 234°
2026-04-27 13:52 -29.18659 -50.20745 22018 ft 302 kts 234°
2026-04-27 13:52 -29.20096 -50.22422 22017 ft 302 kts 234°
2026-04-27 13:52 -29.21592 -50.24172 22016 ft 302 kts 234°
2026-04-27 13:52 -29.23060 -50.25888 22016 ft 302 kts 234°
2026-04-27 13:53 -29.26004 -50.29333 22015 ft 302 kts 234°
2026-04-27 13:53 -29.27476 -50.31057 22015 ft 302 kts 234°
2026-04-27 13:53 -29.28943 -50.32775 22016 ft 302 kts 234°
2026-04-27 13:54 -29.30417 -50.34503 22016 ft 302 kts 234°
2026-04-27 13:54 -29.31891 -50.36232 22015 ft 302 kts 234°
2026-04-27 13:54 -29.33360 -50.37956 22015 ft 302 kts 234°
2026-04-27 13:54 -29.34828 -50.39678 22015 ft 302 kts 234°
2026-04-27 13:55 -29.36298 -50.41405 22014 ft 302 kts 234°
2026-04-27 13:55 -29.37764 -50.43126 22013 ft 302 kts 234°
2026-04-27 13:55 -29.39247 -50.44869 22012 ft 302 kts 234°
2026-04-27 13:55 -29.40694 -50.46571 22011 ft 302 kts 234°
2026-04-27 13:56 -29.42180 -50.48320 22011 ft 302 kts 234°
2026-04-27 13:56 -29.43635 -50.50032 22010 ft 302 kts 234°
2026-04-27 13:56 -29.45100 -50.51757 22009 ft 303 kts 234°
2026-04-27 13:56 -29.46587 -50.53508 22009 ft 303 kts 234°
2026-04-27 13:57 -29.48057 -50.55241 22008 ft 303 kts 234°
2026-04-27 13:57 -29.49505 -50.56948 22008 ft 303 kts 234°
2026-04-27 13:57 -29.50978 -50.58685 22008 ft 303 kts 234°
2026-04-27 13:57 -29.52440 -50.60411 22008 ft 303 kts 234°
2026-04-27 13:58 -29.53912 -50.62149 22007 ft 303 kts 234°
2026-04-27 13:58 -29.55381 -50.63884 22005 ft 303 kts 234°
2026-04-27 13:58 -29.56848 -50.65617 22005 ft 303 kts 234°
2026-04-27 13:58 -29.58319 -50.67356 22004 ft 303 kts 234°
2026-04-27 13:59 -29.59788 -50.69094 22004 ft 303 kts 234°
2026-04-27 13:59 -29.61247 -50.70821 22004 ft 303 kts 234°
2026-04-27 13:59 -29.62724 -50.72569 22003 ft 303 kts 234°
2026-04-27 13:59 -29.64194 -50.74310 22003 ft 303 kts 234°
2026-04-27 14:00 -29.65660 -50.76048 22002 ft 303 kts 234°
2026-04-27 14:00 -29.67130 -50.77790 22002 ft 303 kts 234°
2026-04-27 14:00 -29.68596 -50.79528 22002 ft 303 kts 234°
2026-04-27 14:00 -29.70040 -50.81241 22002 ft 303 kts 234°
2026-04-27 14:01 -29.71512 -50.82989 22001 ft 303 kts 234°
2026-04-27 14:01 -29.72986 -50.84739 22000 ft 303 kts 234°
2026-04-27 14:01 -29.74451 -50.86480 22000 ft 303 kts 234°
2026-04-27 14:01 -29.75915 -50.88221 22000 ft 303 kts 234°
2026-04-27 14:02 -29.77377 -50.89959 21999 ft 303 kts 234°
2026-04-27 14:02 -29.78844 -50.91705 21999 ft 303 kts 234°
2026-04-27 14:02 -29.80290 -50.93426 21999 ft 303 kts 234°
2026-04-27 14:02 -29.81752 -50.95167 21999 ft 303 kts 234°
2026-04-27 14:03 -29.83221 -50.96917 21998 ft 303 kts 234°
2026-04-27 14:03 -29.84683 -50.98660 21998 ft 303 kts 234°
2026-04-27 14:03 -29.86153 -51.00414 21998 ft 303 kts 234°
2026-04-27 14:03 -29.87609 -51.02151 21998 ft 303 kts 234°
2026-04-27 14:04 -29.89074 -51.03901 21997 ft 303 kts 234°
2026-04-27 14:04 -29.90535 -51.05645 21997 ft 303 kts 234°
2026-04-27 14:04 -29.92001 -51.07398 21997 ft 303 kts 234°
2026-04-27 14:04 -29.93448 -51.09129 21997 ft 303 kts 234°
2026-04-27 14:05 -29.94923 -51.10894 21997 ft 303 kts 234°
2026-04-27 14:05 -29.96390 -51.12652 21997 ft 303 kts 234°
2026-04-27 14:05 -29.97916 -51.14304 21997 ft 308 kts 229°
2026-04-27 14:05 -29.99646 -51.15798 21998 ft 313 kts 224°
2026-04-27 14:06 -30.01483 -51.17163 21998 ft 316 kts 221°
2026-04-27 14:06 -30.03385 -51.18444 21998 ft 317 kts 219°
2026-04-27 14:06 -30.05333 -51.19679 21998 ft 319 kts 218°
2026-04-27 14:06 -30.06633 -51.20476 21997 ft 319 kts 218°
2026-04-27 14:07 -30.09277 -51.22058 21997 ft 320 kts 217°
2026-04-27 14:07 -30.10587 -51.22830 21997 ft 320 kts 217°
2026-04-27 14:07 -30.12570 -51.23990 21997 ft 320 kts 217°
2026-04-27 14:07 -30.15214 -51.25529 21997 ft 320 kts 217°
2026-04-27 14:08 -30.16560 -51.26310 21997 ft 320 kts 217°
2026-04-27 14:08 -30.18537 -51.27457 21997 ft 320 kts 217°
2026-04-27 14:08 -30.20551 -51.28625 21997 ft 320 kts 217°
2026-04-27 14:08 -30.22526 -51.29770 21997 ft 320 kts 217°
2026-04-27 14:09 -30.24547 -51.30944 21997 ft 320 kts 217°
2026-04-27 14:09 -30.26541 -51.32102 21997 ft 320 kts 217°
2026-04-27 14:09 -30.28528 -51.33256 21997 ft 320 kts 217°
2026-04-27 14:09 -30.30499 -51.34402 21997 ft 320 kts 217°
2026-04-27 14:10 -30.32521 -51.35579 21997 ft 320 kts 217°
2026-04-27 14:10 -30.34515 -51.36740 21997 ft 320 kts 217°
2026-04-27 14:10 -30.36503 -51.37897 21997 ft 320 kts 217°
2026-04-27 14:10 -30.38490 -51.39056 21997 ft 320 kts 217°
2026-04-27 14:11 -30.40487 -51.40220 21997 ft 320 kts 217°
2026-04-27 14:11 -30.42459 -51.41370 21997 ft 320 kts 217°
2026-04-27 14:11 -30.44450 -51.42533 21997 ft 320 kts 217°
2026-04-27 14:11 -30.46437 -51.43693 21997 ft 320 kts 217°
2026-04-27 14:12 -30.48428 -51.44856 21997 ft 320 kts 217°
2026-04-27 14:12 -30.50415 -51.46017 21997 ft 320 kts 217°
2026-04-27 14:12 -30.52413 -51.47171 22041 ft 317 kts 218°
2026-04-27 14:12 -30.54377 -51.48310 22060 ft 315 kts 219°
2026-04-27 14:13 -30.56337 -51.49453 22065 ft 314 kts 219°
2026-04-27 14:13 -30.58287 -51.50595 22066 ft 313 kts 219°
2026-04-27 14:13 -30.60232 -51.51737 22068 ft 312 kts 219°
2026-04-27 14:13 -30.62156 -51.52869 22069 ft 312 kts 219°
2026-04-27 14:14 -30.64090 -51.54006 22069 ft 311 kts 219°
2026-04-27 14:14 -30.66047 -51.55158 22069 ft 311 kts 219°
2026-04-27 14:14 -30.67953 -51.56280 22069 ft 311 kts 219°
2026-04-27 14:14 -30.69910 -51.57432 22070 ft 310 kts 219°
2026-04-27 14:15 -30.71811 -51.58551 22071 ft 310 kts 219°
2026-04-27 14:15 -30.73733 -51.59682 22071 ft 310 kts 219°
2026-04-27 14:15 -30.75659 -51.60816 22071 ft 310 kts 219°
2026-04-27 14:15 -30.77582 -51.61949 22073 ft 310 kts 219°
2026-04-27 14:16 -30.79495 -51.63074 22074 ft 310 kts 219°
2026-04-27 14:16 -30.81428 -51.64214 22075 ft 309 kts 219°
2026-04-27 14:16 -30.83349 -51.65345 22076 ft 309 kts 219°
2026-04-27 14:16 -30.85269 -51.66478 22076 ft 309 kts 219°
2026-04-27 14:17 -30.87189 -51.67610 22077 ft 309 kts 219°
2026-04-27 14:17 -30.89100 -51.68738 22078 ft 309 kts 219°
2026-04-27 14:17 -30.91031 -51.69877 22079 ft 309 kts 219°
2026-04-27 14:17 -30.92944 -51.71006 22080 ft 309 kts 219°
2026-04-27 14:18 -30.94828 -51.72119 22082 ft 308 kts 219°
2026-04-27 14:18 -30.96774 -51.73268 22084 ft 308 kts 219°
2026-04-27 14:18 -30.98689 -51.74400 22085 ft 308 kts 220°
2026-04-27 14:18 -31.00598 -51.75530 22085 ft 308 kts 220°
2026-04-27 14:19 -31.02507 -51.76660 22085 ft 308 kts 220°
2026-04-27 14:19 -31.04418 -51.77792 22087 ft 307 kts 220°
2026-04-27 14:19 -31.06321 -51.78919 22088 ft 307 kts 220°
2026-04-27 14:19 -31.08229 -51.80050 22089 ft 307 kts 220°
2026-04-27 14:20 -31.09836 -51.81002 22089 ft 306 kts 220°
2026-04-27 14:20 -31.11689 -51.82096 22090 ft 301 kts 220°
2026-04-27 14:20 -31.13555 -51.83197 21927 ft 302 kts 220°
2026-04-27 14:20 -31.15444 -51.84327 21573 ft 306 kts 220°
2026-04-27 14:21 -31.17350 -51.85470 21220 ft 309 kts 220°
2026-04-27 14:21 -31.19267 -51.86619 20868 ft 310 kts 219°
2026-04-27 14:21 -31.21191 -51.87769 20516 ft 312 kts 219°
2026-04-27 14:21 -31.23132 -51.88928 20162 ft 313 kts 219°
2026-04-27 14:22 -31.25082 -51.90091 19808 ft 313 kts 219°
2026-04-27 14:22 -31.27023 -51.91246 19457 ft 314 kts 218°
2026-04-27 14:22 -31.28973 -51.92406 19104 ft 314 kts 218°
2026-04-27 14:22 -31.30922 -51.93565 18751 ft 314 kts 218°
2026-04-27 14:23 -31.32731 -51.94641 18424 ft 314 kts 218°
2026-04-27 14:23 -31.34709 -51.95817 18066 ft 314 kts 218°
2026-04-27 14:23 -31.36652 -51.96974 17714 ft 313 kts 218°
2026-04-27 14:23 -31.38589 -51.98128 17362 ft 313 kts 218°
2026-04-27 14:24 -31.40508 -51.99271 17013 ft 312 kts 218°
2026-04-27 14:24 -31.42437 -52.00423 16661 ft 311 kts 218°
2026-04-27 14:24 -31.44369 -52.01577 16307 ft 311 kts 218°
2026-04-27 14:24 -31.46293 -52.02728 15900 ft 311 kts 218°
2026-04-27 14:25 -31.48202 -52.03866 15403 ft 301 kts 218°
2026-04-27 14:25 -31.50032 -52.04946 14901 ft 287 kts 218°
2026-04-27 14:25 -31.51761 -52.05996 14401 ft 274 kts 220°
2026-04-27 14:25 -31.53319 -52.07170 13901 ft 260 kts 226°
2026-04-27 14:26 -31.54691 -52.08466 13397 ft 248 kts 231°
2026-04-27 14:26 -31.55918 -52.09855 12780 ft 240 kts 234°
2026-04-27 14:26 -31.57021 -52.11285 12157 ft 234 kts 237°
2026-04-27 14:26 -31.58047 -52.12744 11538 ft 235 kts 238°
2026-04-27 14:27 -31.59070 -52.14270 10904 ft 233 kts 239°
2026-04-27 14:27 -31.60028 -52.15693 10309 ft 210 kts 238°
2026-04-27 14:27 -31.60910 -52.16979 9684 ft 195 kts 238°
2026-04-27 14:27 -31.61735 -52.18180 9085 ft 178 kts 239°
2026-04-27 14:28 -31.62448 -52.19203 8482 ft 154 kts 239°
2026-04-27 14:28 -31.63096 -52.20151 7857 ft 145 kts 240°
2026-04-27 14:28 -31.63701 -52.21045 7233 ft 136 kts 241°
2026-04-27 14:28 -31.64268 -52.21881 6614 ft 130 kts 241°
2026-04-27 14:29 -31.64835 -52.22718 5978 ft 128 kts 241°
2026-04-27 14:29 -31.65406 -52.23565 5355 ft 137 kts 240°
2026-04-27 14:29 -31.66015 -52.24455 4731 ft 142 kts 239°
2026-04-27 14:29 -31.66651 -52.25372 4102 ft 145 kts 238°
2026-04-27 14:30 -31.67292 -52.26289 3478 ft 146 kts 238°
2026-04-27 14:30 -31.67925 -52.27199 2862 ft 147 kts 237°
2026-04-27 14:30 -31.68592 -52.28178 2329 ft 151 kts 237°
2026-04-27 14:30 -31.69226 -52.29103 2082 ft 142 kts 237°
2026-04-27 14:31 -31.69819 -52.29969 1821 ft 130 kts 238°
2026-04-27 14:31 -31.70007 -52.30243 1733 ft 127 kts 238°
2026-04-27 14:31 -31.70210 -52.30541 1640 ft 124 kts 238°
2026-04-27 14:31 -31.70780 -52.31278 1084 ft 119 kts 237°
2026-04-27 14:32 -31.71228 -52.32069 303 ft 117 kts 240°
2026-04-27 14:32 -31.71696 -52.32724 77 ft 82 kts 239°
2026-04-27 14:32 -31.71803 -52.32898 76 ft 6 kts 221°
2026-04-27 14:32 -31.71837 -52.32955 76 ft 8 kts 255°
2026-04-27 14:33 -31.71819 -52.33009 76 ft 10 kts 307°
2026-04-27 14:33 -31.71742 -52.33081 76 ft 13 kts 340°
2026-04-27 14:33 -31.71701 -52.33055 76 ft 14 kts 47°
2026-04-27 14:33 -31.71632 -52.33018 76 ft 1 kts 316°
2026-04-27 14:34 -31.71628 -52.33034 76 ft 2 kts 261°
2026-04-27 14:34 -31.71629 -52.33036 76 ft 0 kts 248°
2026-04-27 14:34 -31.71630 -52.33036 76 ft 0 kts 248°